Погода в Томшарове

Россия / Республика Марий Эл     56°46′05″N   48°07′25″E
темп.,
°C
ветер,
м/с
пор.,
м/с
влажн.,
%
обл.,
%
осадки,
мм/ч
давл.,
гПа
погр.,
м
26 сентября, вс
вс2600:00+5юв119699 0.0 101010
03:00+5ююв1296100 0.0 100920
06:00+5в2396100 0.0 100863
09:00+9юв2381100 0.0 1007319
12:00+12вюв226696 0.0 1007863
15:00+13всв236282 0.1 10071077
18:00+8св488464 0.0 1009185
21:00+9св498458 0.0 1009218
27 сентября, пн
пн2700:00+7ссв499664 0.0 1010225
03:00+8св51089100 0.0 1011453
06:00+8св51187100 0.0 1013691
09:00+7св6992100 1.4 10141061
12:00+5св61196100 1.3 1017870
15:00+4св61191100 1.9 10191069
18:00+5всв61185100 0.1 10211096
21:00+5всв5118398 0.1 1023952
28 сентября, вт
вт2800:00+2св411885 0.0 1025346
03:00+1св411875 0.0 1027329
06:000св4109130 0.0 1028283
09:00+4св58705 0.0 1029535
12:00+8св57525 0.0 10291098
15:00+9св57465 0.0 10291296
18:00+4ссв36665 0.0 1030101
21:00+3ссв3473100 0.0 103178
29 сентября, ср
ср2900:00+2ссв2376100 0.0 103168
03:00+1ссв24826 0.0 103170
06:000ссв238826 0.0 103258
09:00+5св246411 0.0 1032415
12:00+9ссв235084 0.0 10321219
15:00+9с344852 0.0 10321378
18:00+5с367664 0.0 1032121
21:00+4ссв238397 0.0 1032101
30 сентября, чт
чт3000:00+5с118495 0.0 103222
03:00+3сз119181 0.0 103211
06:00+4зсз1189100 0.0 103219
09:00+7зсз127557 0.0 1032418
12:00+11зсз22536 0.1 10311227
15:00+11зсз345232 0.1 10301285
18:00+8з367365 0.0 1030148
21:00+9зсз3878100 0.0 1029304